Regional Weather Roundup
Issued by NWS Cleveland, OH

Home | Current Version | Previous Version | Text Only | Print | Product List | Glossary Off
Versions: 1 2 3 4 5 6 7 8 9 10 11 12 13 14 15 16 17 18 19 20 21 22 23 24 25 26 27 28 29 30 31 32 33 34 35 36 37 38 39 40 41 42 43 44 45 46 47 48 49 50

000
ASUS41 KCLE 251410
RWRCLE
OHIO REGIONAL WEATHER ROUNDUP
NATIONAL WEATHER SERVICE CLEVELAND, OH
1000 AM EDT TUE JUL 25 2017

NOTE: "FAIR" INDICATES FEW OR NO CLOUDS BELOW 12,000 FEET WITH NO
SIGNIFICANT WEATHER AND/OR OBSTRUCTIONS TO VISIBILITY.

OHZ001>008-015>018-024>027-034-035-043-044-251500-
   NORTHWEST OHIO

CITY           SKY/WX    TMP DP  RH WIND       PRES   REMARKS
DEFIANCE       SUNNY    N/A N/A N/A E10       30.23F
FINDLAY        SUNNY     69  55  60 NE8       30.22S
TOLEDO EXPRESS SUNNY     69  55  60 NE9       30.22F
TOLEDO EXEC    SUNNY     70  58  65 E9        30.23S
LIMA           SUNNY     67  58  72 CALM      30.24R
$$

OHZ009>014-019>023-028>033-038-089-251500-
   NORTHEAST OHIO

CITY           SKY/WX    TMP DP  RH WIND       PRES   REMARKS
CLE-HOPKINS    CLOUDY    69  58  67 N12       30.22R
CLE-LAKEFRONT  CLOUDY    67  57  70 N7        30.19R
CUY CO. ARPT   CLOUDY    66  57  72 NE7       30.21R
LORAIN-ELYRIA  CLOUDY    65  54  67 NE7       30.22R
ASHTABULA      CLOUDY    64  59  83 VRB6      30.20R
AKRON-CANTON   CLOUDY    68  56  65 N8        30.20R
WOOSTER        CLOUDY    66  58  75 N7        30.22R
MANSFIELD      CLOUDY    65  58  78 N6        30.23R
YOUNGSTOWN     CLOUDY    65  57  75 NW7       30.19S
$$

OHZ042-051>053-060>062-070>072-077>081-251500-
  SOUTHWEST OHIO

CITY           SKY/WX    TMP DP  RH WIND       PRES   REMARKS
CINC-COVINGTON MOSUNNY   70  59  68 E9        30.19F
CINC-LUNKEN    SUNNY     71  61  70 E9        30.20F
HAMILTON       SUNNY     71  60  68 E7        30.21F
DAYTON         MOSUNNY   67  57  70 VRB3      30.23S
WRIGHT-PAT AFB SUNNY     68  58  68 NE7       30.22S
DAYTON GENERAL SUNNY     69  56  62 E7        30.21S
WILMINGTON     SUNNY     67  58  72 E8        30.21S
$$

OHZ036-037-039>041-045>050-054>059-063>069-073>076-082>088-251500-
  CENTRAL AND SOUTHEAST OHIO

CITY           SKY/WX    TMP DP  RH WIND       PRES   REMARKS
COLUMBUS       PTSUNNY   69  59  70 VRB3      30.21S
OSU AIRPORT    PTSUNNY   67  58  72 N10       30.22S
BOLTON FIELD   PTSUNNY   66  57  72 NE7       30.22S
RICKENBACK AFB PTSUNNY   67  58  72 E7        30.21S
NEWARK         CLOUDY    67  57  70 NE7       30.21R
MARION         PTSUNNY   66  58  75 N5        30.23S
LANCASTER      CLOUDY    65  59  81 N6        30.23R
ZANESVILLE     CLOUDY    66  58  75 N5        30.21R
NEW PHILLY     NOT AVBL
$$



USA.gov is the U.S. government's official web portal to all federal, state and local government web resources and services.